Location: Cheadle
(51.0146°N, 113.5417°W)
Time: 04:43:34
(UTC+00:00)

PCSat - Visible Passes

Search period start: 05 December 2023 00:00
Search period end: 15 December 2023 00:00
Orbit: 784 x 792 km, 67.1° (Epoch: 04 December)

Date Brightness Start Highest point End Pass type
(mag) Time Alt. Az. Time Alt. Az. Time Alt. Az.
05 Dec 12.1 10:46:33 17° E 10:46:33 17° E 10:48:35 10° ENE visible
05 Dec 9.4 12:27:17 81° W 12:27:28 83° NW 12:32:55 10° NE visible
05 Dec 10.7 14:08:00 14° W 14:11:37 25° NNW 14:16:05 10° NNE visible
06 Dec 10.2 11:57:18 52° NE 11:57:18 52° NE 12:01:25 10° NE visible
06 Dec 10.5 13:38:01 24° WNW 13:39:53 29° NW 13:44:37 10° NNE visible
07 Dec 11.2 11:27:10 29° NE 11:27:10 29° NE 11:29:52 10° NE visible
07 Dec 10.2 13:07:52 35° NW 13:08:12 35° NW 13:13:11 10° NNE visible
08 Dec 12.0 10:56:55 17° NE 10:56:55 17° NE 10:58:16 10° NE visible
08 Dec 10.3 12:37:37 38° NNW 12:37:37 38° NNW 12:41:43 10° NNE visible
08 Dec 11.2 14:18:18 12° NW 14:21:20 18° NNW 14:24:57 10° NNE visible
09 Dec 12.6 10:26:36 10° NE 10:26:36 10° NE 10:26:36 10° NE visible
09 Dec 10.8 12:07:17 31° NNE 12:07:17 31° NNE 12:10:16 10° NNE visible
09 Dec 11.0 13:47:58 17° NW 13:49:31 19° NNW 13:53:26 10° NNE visible
10 Dec 11.5 11:36:53 22° NNE 11:36:53 22° NNE 11:38:47 10° NE visible
10 Dec 10.9 13:17:34 22° NNW 13:17:44 22° NNW 13:21:56 10° NNE visible
11 Dec 12.1 11:06:25 15° NE 11:06:25 15° NE 11:07:18 10° NE visible
11 Dec 11.0 12:47:07 24° N 12:47:07 24° N 12:50:28 10° NNE visible
11 Dec 11.4 14:28:15 10° NW 14:31:15 15° N 14:34:17 10° NNE visible
12 Dec 11.3 12:16:36 22° N 12:16:36 22° N 12:18:59 10° NNE visible
12 Dec 11.4 13:57:17 13° NW 13:59:23 15° N 14:02:33 10° NNE visible
13 Dec 11.7 11:46:03 17° NNE 11:46:03 17° NNE 11:47:32 10° NNE visible
13 Dec 11.3 13:26:44 16° NNW 13:27:31 16° NNW 13:30:53 10° NNE visible
14 Dec 12.1 11:15:29 13° NNE 11:15:29 13° NNE 11:16:05 10° NNE visible
14 Dec 11.3 12:56:10 17° N 12:56:10 17° N 12:59:18 10° NNE visible
14 Dec 11.5 14:38:05 10° NNW 14:41:13 15° N 14:44:23 10° NE visible
